SQ2CET-13 Weather Reports


time (UTC)temp
C
wind
direction
speed
KPH
gust
KPH
rain 1hr
cm
rain 24hr
cm
rain mn
cm
humidity
%
barometer
mb
20260504004018 17 16 0.0 3.2 0.00 0.00 0.00 51 1010.4
20260504003042 18 213 1.6 4.8 0.00 0.00 0.00 49 1010.4
20260504002106 18 186 1.6 6.4 0.00 0.00 0.00 48 1010.5
20260504001026 18 215 1.6 8.0 0.00 0.00 0.00 48 1010.6
20260504000051 18 119 1.6 4.8 0.00 0.00 0.00 48 1010.6
20260503235115 18 70 1.6 4.8 0.00 0.00 0.00 49 1010.7
20260503234054 18 64 1.6 6.4 0.00 0.00 0.00 49 1010.8
20260503233058 18 40 3.2 6.4 0.00 0.00 0.00 51 1011.1
20260503232038 18 36 1.6 4.8 0.00 0.00 0.00 53 1011.1
20260503231042 18 216 1.6 4.8 0.00 0.00 0.00 54 1011.2
20260503230051 18 44 1.6 8.0 0.00 0.00 0.00 55 1011.3
20260503225115 18 47 4.8 8.0 0.00 0.00 0.00 55 1011.4
20260503224034 17 200 3.2 8.0 0.00 0.00 0.00 58 1011.5
20260503223057 17 194 1.6 6.4 0.00 0.00 0.00 58 1011.6
20260503222019 17 238 1.6 3.2 0.00 0.00 0.00 59 1011.6
20260503221042 17 194 0.0 3.2 0.00 0.00 0.00 61 1011.6
20260503220107 17 141 0.0 3.2 0.00 0.00 0.00 62 1011.9
20260503215026 17 0.0 1.6 0.00 0.00 0.00 62 1011.9
20260503214050 17 160 0.0 3.2 0.00 0.00 0.00 62 1012.0
20260503213114 16 357 0.0 3.2 0.00 0.00 0.00 64 1012.2
20260503212034 17 193 1.6 4.8 0.00 0.00 0.00 63 1012.3
20260503211059 16 30 1.6 4.8 0.00 0.00 0.00 66 1012.2
20260503210019 16 92 1.6 3.2 0.00 0.00 0.00 68 1012.6
20260503205044 16 69 1.6 4.8 0.00 0.00 0.00 69 1012.3
20260503204106 16 51 3.2 6.4 0.00 0.00 0.00 67 1012.4
20260503203026 16 314 3.2 9.7 0.00 0.00 0.00 63 1013.5
20260503202051 16 245 8.0 22.5 0.00 0.00 0.00 66 1013.4
20260503201115 16 0.0 0.0 0.00 0.00 0.00 65 1012.4
20260503200034 16 0.0 0.0 0.00 0.00 0.00 65 1012.4
20260503195059 15 0.0 0.0 0.00 0.00 0.00 65 1012.6
20260503194114 16 0.0 0.0 0.00 0.00 0.00 65 1012.5
20260503193034 16 0.0 1.6 0.00 0.00 0.00 61 1012.6
20260503192058 17 0.0 0.0 0.00 0.00 0.00 62 1012.6
20260503191114 16 0.0 0.0 0.00 0.00 0.00 64 1012.6
20260503190034 17 0.0 0.0 0.00 0.00 0.00 62 1012.6
20260503185059 17 0.0 0.0 0.00 0.00 0.00 62 1012.4
20260503184122 17 0.0 0.0 0.00 0.00 0.00 60 1012.3
20260503183026 18 0.0 0.0 0.00 0.00 0.00 58 1012.2
20260503182050 20 0.0 1.6 0.00 0.00 0.00 53 1012.2
20260503181114 20 0.0 0.0 0.00 0.00 0.00 47 1012.2
20260503180034 21 0.0 0.0 0.00 0.00 0.00 45 1012.1
20260503175101 21 0.0 0.0 0.00 0.00 0.00 44 1012.1
20260503174019 22 0.0 4.8 0.00 0.00 0.00 42 1012.1
20260503173042 23 294 1.6 4.8 0.00 0.00 0.00 39 1012.1
20260503172106 23 356 3.2 6.4 0.00 0.00 0.00 39 1012.0
20260503171027 22 351 3.2 8.0 0.00 0.00 0.00 41 1012.1
20260503160107 26 350 3.2 8.0 0.00 0.00 0.00 33 1012.2
20260503150109 28 352 3.2 8.0 0.00 0.00 0.00 31 1012.3
20260503140147 27 19 3.2 8.0 0.00 0.00 0.00 31 1012.5
20260503131028 27 347 3.2 17.7 0.00 0.00 0.00 31 1012.8
20260503130111 28 306 3.2 16.1 0.00 0.00 0.00 25 1012.8
20260503081054 23 233 8.0 17.7 0.00 0.00 0.00 33 1014.7
20260503080117 22 242 4.8 19.3 0.00 0.00 0.00 34 1014.9
20260503072035 21 220 6.4 16.1 0.00 0.00 0.00 37 1015.0
20260503071100 20 226 9.7 20.9 0.00 0.00 0.00 37 1015.0
20260503070116 20 205 3.2 6.4 0.00 0.00 0.00 41 1015.0
20260503060109 18 213 1.6 8.0 0.00 0.00 0.00 45 1015.2
20260503055027 17 225 3.2 14.5 0.00 0.00 0.00 46 1015.3
20260503054051 17 223 3.2 11.3 0.00 0.00 0.00 47 1015.2
20260503053115 17 222 3.2 8.0 0.00 0.00 0.00 48 1015.3
20260503052035 17 181 1.6 8.0 0.00 0.00 0.00 49 1015.3
20260503051059 16 238 3.2 8.0 0.00 0.00 0.00 49 1015.4
20260503050019 16 239 1.6 8.0 0.00 0.00 0.00 50 1015.3
20260503045042 16 229 1.6 8.0 0.00 0.00 0.00 51 1015.4
20260503044108 15 207 3.2 8.0 0.00 0.00 0.00 52 1015.5
20260503043027 15 220 3.2 6.4 0.00 0.00 0.00 52 1015.4
20260503042050 15 229 3.2 8.0 0.00 0.00 0.00 53 1015.4
20260503041116 15 215 1.6 6.4 0.00 0.00 0.00 53 1015.5
20260503040036 15 229 1.6 8.0 0.00 0.00 0.00 53 1015.5
20260503035059 15 219 3.2 4.8 0.00 0.00 0.00 53 1015.5
20260503034018 15 258 3.2 9.7 0.00 0.00 0.00 54 1015.6
20260503033042 14 204 4.8 9.7 0.00 0.00 0.00 54 1015.4
20260503032108 14 204 4.8 9.7 0.00 0.00 0.00 55 1015.5
20260503031046 14 240 3.2 8.0 0.00 0.00 0.00 55 1015.5
20260503030052 14 218 3.2 8.0 0.00 0.00 0.00 54 1015.5
20260503025115 14 210 3.2 8.0 0.00 0.00 0.00 54 1015.6
20260503024034 15 222 3.2 9.7 0.00 0.00 0.00 53 1015.5
20260503023059 15 208 3.2 8.0 0.00 0.00 0.00 53 1015.8
20260503022020 15 234 1.6 9.7 0.00 0.00 0.00 53 1015.8
20260503021045 15 202 3.2 8.0 0.00 0.00 0.00 52 1015.8
20260503020106 15 227 3.2 6.4 0.00 0.00 0.00 52 1015.9
20260503015027 15 217 3.2 8.0 0.00 0.00 0.00 52 1016.0
20260503014112 15 238 3.2 6.4 0.00 0.00 0.00 53 1015.9
20260503013115 15 236 3.2 8.0 0.00 0.00 0.00 53 1015.9
20260503012032 15 193 4.8 11.3 0.00 0.00 0.00 53 1016.0
20260503011043 15 231 4.8 11.3 0.00 0.00 0.00 53 1016.0
20260503010107 15 213 4.8 8.0 0.00 0.00 0.00 54 1016.2